TJS-3

Last updated on Nov. 18, 2019, 4:21 a.m. UTC

1 43874U 18110A   19320.88735216  .00000012  00000-0  00000-0 0  9995
2 43874   0.0913  94.0051 0007106 133.1600 321.0038  1.00275393  3378
UTC
Height (km)
Latitude
Longitude
Inclination
Orbital Period
UTC large
Height (km)
Speed (km/s)
/
Latitude / Longitude
Inclination (degrees)
Orbital Period (minutes)
Azimuth
Elevation
Range (km)
Doppler Factor
iOS Compass Heading
iOS Angle

Next 30 passes for location: Hong Kong

Rise time Rise Azimuth (degrees) Set time Set Azimuth (degrees) Duration Max altitude (degrees)

No matching passes for this satellites